Location: Black Swamp Observatory
(41.3920°N, 84.1250°W)
Time: 02:28:50
(UTC-05:00)

X-37B - Pass Details

Date: 04 December 2021
Orbit: 331 x 339 km, 45.0° (Epoch: 27 January)

Event Time Altitude Azimuth Distance (km) Brightness Sun altitude
Rises 18:51:40 0° 211° (SSW) 2,085 5.0 -19.0°
Reaches altitude 10° 18:54:02 10° 190° (S) 1,252 3.4 -19.5°
Enters shadow 18:54:49 14° 176° (S) 1,049 2.8 -19.6°
